Location: Newark
(31.5350°N, 35.0986°E)
Time: 20:49:37
(UTC+00:00)

Courier 1B - Pass Details

Date: 29 September 2019
Orbit: 962 x 1209 km, 28.3° (Epoch: 18 October)

Event Time Altitude Azimuth Distance (km) Brightness Sun altitude
Exits shadow 23:45:43 11° 93° (E) 2,635 10.1 -46.9°
Drops below altitude 10° 23:45:50 10° 93° (E) 2,677 10.2 -46.9°
Sets 23:48:40 0° 87° (E) 3,664 11.1 -46.4°
